Time,TemperatureF,DewpointF,PressureIn,WindDirection,WindDirectionDegrees,WindSpeedMPH,WindSpeedGustMPH,Humidity,HourlyPrecipIn,Conditions,Clouds,dailyrainin,SolarRadiationWatts/m^2,SoftwareType,DateUTC
2013-02-15 00:04:00,35.6,34.3,29.86,South,180,2.0,2.0,95,0.01,RA,,0.00,0.0,WeatherDisplay:10.37,2013-02-14 23:04:00,
2013-02-15 00:09:00,35.6,34.3,29.86,South,181,3.0,3.0,95,0.01,RA,,0.00,0.0,WeatherDisplay:10.37,2013-02-14 23:09:00,
2013-02-15 00:15:00,35.6,34.3,29.86,South,181,2.3,2.3,95,0.01,BKN,,0.00,0.0,WeatherDisplay:10.37,2013-02-14 23:15:00,
2013-02-15 00:20:00,35.6,34.3,29.86,South,181,1.1,1.1,95,0.01,BKN,,0.00,0.0,WeatherDisplay:10.37,2013-02-14 23:20:00,
2013-02-15 00:25:00,35.6,34.3,29.86,South,180,0.0,0.0,95,0.01,BKN,,0.00,0.0,WeatherDisplay:10.37,2013-02-14 23:25:00,
2013-02-15 00:30:00,35.6,34.3,29.86,South,180,0.0,0.0,95,0.01,BKN,,0.00,0.0,WeatherDisplay:10.37,2013-02-14 23:30:00,
2013-02-15 00:36:00,35.6,34.3,29.87,South,180,3.5,3.5,95,0.01,BKN,,0.00,0.0,WeatherDisplay:10.37,2013-02-14 23:36:00,
2013-02-15 00:41:00,35.7,34.4,29.87,South,180,1.1,1.1,95,0.01,BKN,,0.00,0.0,WeatherDisplay:10.37,2013-02-14 23:41:00,
2013-02-15 00:46:00,35.7,34.4,29.87,South,180,0.0,0.0,95,0.01,BKN,,0.01,0.0,WeatherDisplay:10.37,2013-02-14 23:46:00,
2013-02-15 00:51:00,35.6,34.3,29.87,South,180,2.3,2.3,95,0.00,RA,,0.01,0.0,WeatherDisplay:10.37,2013-02-14 23:51:00,
2013-02-15 00:57:00,35.6,34.3,29.87,South,181,1.1,1.1,95,0.00,BKN,,0.01,0.0,WeatherDisplay:10.37,2013-02-14 23:57:00,
2013-02-15 01:02:00,35.6,34.3,29.88,South,181,0.0,0.0,95,0.01,BKN,,0.01,0.0,WeatherDisplay:10.37,2013-02-15 00:02:00,
2013-02-15 01:07:00,35.6,34.3,29.87,South,182,0.0,0.0,95,0.01,BKN,,0.01,0.0,WeatherDisplay:10.37,2013-02-15 00:07:00,
2013-02-15 01:12:00,35.6,34.3,29.88,South,182,2.3,2.3,95,0.01,BKN,,0.01,0.0,WeatherDisplay:10.37,2013-02-15 00:12:00,
2013-02-15 01:17:00,35.6,34.3,29.87,South,182,3.5,3.5,95,0.01,BKN,,0.01,0.0,WeatherDisplay:10.37,2013-02-15 00:17:00,
2013-02-15 01:23:00,35.6,34.3,29.88,South,182,3.5,3.5,95,0.01,BKN,,0.01,0.0,WeatherDisplay:10.37,2013-02-15 00:23:00,
2013-02-15 01:28:00,35.6,34.3,29.88,South,182,3.5,3.5,95,0.01,BKN,,0.01,0.0,WeatherDisplay:10.37,2013-02-15 00:28:00,
2013-02-15 01:33:00,35.5,34.2,29.88,South,182,0.0,0.0,95,0.01,BKN,,0.01,0.0,WeatherDisplay:10.37,2013-02-15 00:33:00,
2013-02-15 01:38:00,35.5,34.2,29.88,South,182,1.0,1.0,95,0.01,BKN,,0.01,0.0,WeatherDisplay:10.37,2013-02-15 00:38:00,
2013-02-15 01:44:00,35.5,34.2,29.88,South,182,1.1,1.1,95,0.01,BKN,,0.01,0.0,WeatherDisplay:10.37,2013-02-15 00:44:00,
2013-02-15 01:49:00,35.5,34.2,29.88,South,182,0.0,0.0,95,0.00,BKN,,0.01,0.0,WeatherDisplay:10.37,2013-02-15 00:49:00,
2013-02-15 01:54:00,35.5,34.2,29.88,South,182,2.3,0.0,95,0.00,BKN,,0.01,0.0,WeatherDisplay:10.37,2013-02-15 00:54:00,
2013-02-15 01:59:00,35.6,34.3,29.88,South,182,1.0,1.7,95,0.00,BKN,,0.01,0.0,WeatherDisplay:10.37,2013-02-15 00:59:00,
2013-02-15 02:04:00,35.6,34.3,29.88,South,182,0.0,0.0,95,0.00,BKN,,0.01,0.0,WeatherDisplay:10.37,2013-02-15 01:04:00,
2013-02-15 02:09:00,35.6,34.3,29.88,South,182,0.0,0.0,95,0.00,BKN,,0.01,0.0,WeatherDisplay:10.37,2013-02-15 01:09:00,
2013-02-15 02:15:00,35.6,34.3,29.88,South,182,0.0,0.0,95,0.00,BKN,,0.01,0.0,WeatherDisplay:10.37,2013-02-15 01:15:00,
2013-02-15 02:20:00,35.6,34.3,29.88,South,182,0.0,0.0,95,0.00,BKN,,0.01,0.0,WeatherDisplay:10.37,2013-02-15 01:20:00,
2013-02-15 02:25:00,35.5,34.2,29.88,South,182,0.0,0.0,95,0.00,BKN,,0.01,0.0,WeatherDisplay:10.37,2013-02-15 01:25:00,
2013-02-15 02:30:00,35.5,34.2,29.88,South,182,0.0,0.0,95,0.00,BKN,,0.01,0.0,WeatherDisplay:10.37,2013-02-15 01:30:00,
2013-02-15 02:36:00,35.4,34.1,29.88,South,182,0.0,0.0,95,0.00,BKN,,0.01,0.0,WeatherDisplay:10.37,2013-02-15 01:36:00,
2013-02-15 02:41:00,35.4,34.1,29.88,South,182,0.0,0.0,95,0.00,BKN,,0.01,0.0,WeatherDisplay:10.37,2013-02-15 01:41:00,
2013-02-15 02:46:00,35.4,34.1,29.88,South,182,0.0,0.0,95,0.00,BKN,,0.01,0.0,WeatherDisplay:10.37,2013-02-15 01:46:00,
2013-02-15 02:51:00,35.4,34.1,29.89,South,182,0.0,0.0,95,0.00,BKN,,0.01,0.0,WeatherDisplay:10.37,2013-02-15 01:51:00,
2013-02-15 02:56:00,35.3,34.0,29.89,South,182,0.0,0.0,95,0.00,BKN,,0.01,0.0,WeatherDisplay:10.37,2013-02-15 01:56:00,
2013-02-15 03:02:00,35.3,34.0,29.89,South,182,0.0,0.0,95,0.01,RA,,0.02,0.0,WeatherDisplay:10.37,2013-02-15 02:02:00,
2013-02-15 03:07:00,35.3,34.0,29.89,South,182,0.0,0.0,95,0.01,RA,,0.02,0.0,WeatherDisplay:10.37,2013-02-15 02:07:00,
2013-02-15 03:12:00,35.3,34.0,29.89,South,182,0.0,0.0,95,0.01,FEW,,0.02,0.0,WeatherDisplay:10.37,2013-02-15 02:12:00,
2013-02-15 03:17:00,35.3,34.0,29.89,South,182,0.0,0.0,95,0.01,FEW,,0.02,0.0,WeatherDisplay:10.37,2013-02-15 02:17:00,
2013-02-15 03:22:00,35.3,34.0,29.89,South,182,0.0,0.0,95,0.01,FEW,,0.02,0.0,WeatherDisplay:10.37,2013-02-15 02:22:00,
2013-02-15 03:28:00,35.3,34.0,29.89,South,182,0.0,0.0,95,0.01,FEW,,0.02,0.0,WeatherDisplay:10.37,2013-02-15 02:28:00,
2013-02-15 03:33:00,35.3,34.0,29.89,South,182,0.0,0.0,95,0.01,FEW,,0.02,0.0,WeatherDisplay:10.37,2013-02-15 02:33:00,
2013-02-15 03:38:00,35.3,34.0,29.89,South,182,0.0,0.0,95,0.02,RA,,0.02,0.0,WeatherDisplay:10.37,2013-02-15 02:38:00,
2013-02-15 03:44:00,35.3,34.0,29.89,South,182,1.0,1.0,95,0.02,RA,,0.02,0.0,WeatherDisplay:10.37,2013-02-15 02:44:00,
2013-02-15 03:49:00,35.3,34.0,29.89,South,182,0.0,0.0,95,0.02,FEW,,0.02,0.0,WeatherDisplay:10.37,2013-02-15 02:49:00,
2013-02-15 03:54:00,35.3,34.0,29.89,South,182,0.0,0.0,95,0.02,FEW,,0.02,0.0,WeatherDisplay:10.37,2013-02-15 02:54:00,
2013-02-15 03:59:00,35.3,34.0,29.89,South,182,0.0,0.0,95,0.01,FEW,,0.02,0.0,WeatherDisplay:10.37,2013-02-15 02:59:00,
2013-02-15 04:05:00,35.3,34.0,29.89,South,182,0.0,0.0,95,0.01,BKN,,0.02,0.0,WeatherDisplay:10.37,2013-02-15 03:05:00,
2013-02-15 04:10:00,35.4,34.1,29.89,South,182,2.3,2.3,95,0.01,BKN,,0.02,0.0,WeatherDisplay:10.37,2013-02-15 03:10:00,
2013-02-15 04:15:00,35.4,34.1,29.89,South,182,0.0,0.0,95,0.01,BKN,,0.02,0.0,WeatherDisplay:10.37,2013-02-15 03:15:00,
2013-02-15 04:20:00,35.4,34.1,29.89,South,182,0.0,0.0,95,0.01,BKN,,0.02,0.0,WeatherDisplay:10.37,2013-02-15 03:20:00,
2013-02-15 04:25:00,35.5,34.2,29.90,South,182,0.0,0.0,95,0.01,BKN,,0.02,0.0,WeatherDisplay:10.37,2013-02-15 03:25:00,
2013-02-15 04:31:00,35.5,34.2,29.89,South,182,0.0,0.0,95,0.01,BKN,,0.02,0.0,WeatherDisplay:10.37,2013-02-15 03:31:00,
2013-02-15 04:36:00,35.5,34.2,29.89,South,182,0.0,0.0,95,0.00,BKN,,0.02,0.0,WeatherDisplay:10.37,2013-02-15 03:36:00,
2013-02-15 04:41:00,35.4,34.1,29.89,South,182,0.0,0.0,95,0.00,BKN,,0.02,0.0,WeatherDisplay:10.37,2013-02-15 03:41:00,
2013-02-15 04:46:00,35.4,34.1,29.89,South,182,2.3,2.3,95,0.00,BKN,,0.02,0.0,WeatherDisplay:10.37,2013-02-15 03:46:00,
2013-02-15 04:51:00,35.4,34.1,29.89,South,182,0.0,0.0,95,0.00,BKN,,0.02,0.0,WeatherDisplay:10.37,2013-02-15 03:51:00,
2013-02-15 04:57:00,35.5,34.2,29.90,South,182,1.0,0.0,95,0.00,BKN,,0.02,0.0,WeatherDisplay:10.37,2013-02-15 03:57:00,
2013-02-15 05:02:00,35.5,34.2,29.90,South,182,1.1,1.1,95,0.00,SCT,,0.02,0.0,WeatherDisplay:10.37,2013-02-15 04:02:00,
2013-02-15 05:07:00,35.6,34.3,29.90,South,182,1.1,0.0,95,0.00,SCT,,0.02,0.0,WeatherDisplay:10.37,2013-02-15 04:07:00,
2013-02-15 05:12:00,35.7,34.4,29.90,South,183,3.0,3.0,95,0.00,SCT,,0.02,0.0,WeatherDisplay:10.37,2013-02-15 04:12:00,
2013-02-15 05:17:00,36.0,35.0,29.90,South,183,1.1,1.1,96,0.00,SCT,,0.02,0.0,WeatherDisplay:10.37,2013-02-15 04:17:00,
2013-02-15 05:22:00,36.2,34.9,29.91,South,183,1.1,0.0,95,0.00,SCT,,0.02,0.0,WeatherDisplay:10.37,2013-02-15 04:22:00,
2013-02-15 05:28:00,36.5,35.2,29.91,South,183,0.0,0.0,95,0.01,RA,,0.03,0.0,WeatherDisplay:10.37,2013-02-15 04:28:00,
2013-02-15 05:33:00,36.8,35.8,29.91,WSW,248,3.5,3.5,96,0.01,RA,,0.03,0.0,WeatherDisplay:10.37,2013-02-15 04:33:00,
2013-02-15 05:38:00,37.2,36.2,29.91,WSW,247,0.0,0.2,96,0.01,SCT,,0.03,0.0,WeatherDisplay:10.37,2013-02-15 04:38:00,
2013-02-15 05:43:00,37.5,36.5,29.91,WSW,247,3.5,3.5,96,0.01,SCT,,0.03,0.0,WeatherDisplay:10.37,2013-02-15 04:43:00,
2013-02-15 05:49:00,37.7,36.7,29.91,WSW,250,3.5,3.5,96,0.01,SCT,,0.03,0.0,WeatherDisplay:10.37,2013-02-15 04:49:00,
2013-02-15 05:54:00,38.0,37.0,29.91,WSW,250,1.1,1.1,96,0.01,SCT,,0.03,0.0,WeatherDisplay:10.37,2013-02-15 04:54:00,
2013-02-15 05:59:00,38.2,37.2,29.92,WSW,250,2.0,2.0,96,0.01,SCT,,0.03,0.0,WeatherDisplay:10.37,2013-02-15 04:59:00,
2013-02-15 06:00:00,38.3,37.3,29.92,WSW,250,3.5,3.5,96,0.01,SCT,,0.03,0.0,WeatherDisplay:10.37,2013-02-15 05:00:00,
2013-02-15 06:01:00,38.3,37.3,29.92,WSW,250,2.3,2.3,96,0.02,RA,,0.04,0.0,WeatherDisplay:10.37,2013-02-15 05:01:00,
2013-02-15 06:04:00,38.4,37.4,29.92,WSW,251,3.5,3.5,96,0.02,RA,,0.04,0.0,WeatherDisplay:10.37,2013-02-15 05:04:00,
2013-02-15 06:09:00,38.4,37.4,29.92,WSW,251,3.5,3.5,96,0.02,RA,,0.04,0.0,WeatherDisplay:10.37,2013-02-15 05:09:00,
2013-02-15 06:15:00,38.4,37.4,29.92,WSW,251,3.5,3.5,96,0.02,FEW,,0.04,0.0,WeatherDisplay:10.37,2013-02-15 05:15:00,
2013-02-15 06:20:00,38.4,37.4,29.92,WSW,251,0.0,0.0,96,0.02,FEW,,0.04,0.0,WeatherDisplay:10.37,2013-02-15 05:20:00,
2013-02-15 06:25:00,38.4,37.4,29.92,WSW,251,2.3,0.0,96,0.02,FEW,,0.04,0.0,WeatherDisplay:10.37,2013-02-15 05:25:00,
2013-02-15 06:30:00,38.4,37.4,29.92,WSW,253,4.6,4.6,96,0.01,FEW,,0.04,0.0,WeatherDisplay:10.37,2013-02-15 05:30:00,
2013-02-15 06:36:00,38.4,37.4,29.93,WSW,253,4.6,4.6,96,0.01,FEW,,0.04,0.0,WeatherDisplay:10.37,2013-02-15 05:36:00,
2013-02-15 06:41:00,38.4,37.4,29.93,WSW,253,3.0,3.0,96,0.01,FEW,,0.04,0.0,WeatherDisplay:10.37,2013-02-15 05:41:00,
2013-02-15 06:46:00,38.4,37.4,29.93,WSW,253,2.3,2.3,96,0.01,FEW,,0.04,0.0,WeatherDisplay:10.37,2013-02-15 05:46:00,
2013-02-15 06:51:00,38.5,37.5,29.93,WSW,253,3.5,3.5,96,0.01,FEW,,0.04,0.0,WeatherDisplay:10.37,2013-02-15 05:51:00,
2013-02-15 06:57:00,38.6,37.6,29.93,WSW,253,4.6,4.6,96,0.01,FEW,,0.04,0.0,WeatherDisplay:10.37,2013-02-15 05:57:00,
2013-02-15 07:02:00,38.8,37.8,29.93,WSW,253,3.5,3.5,96,0.00,OVC,,0.04,0.0,WeatherDisplay:10.37,2013-02-15 06:02:00,
2013-02-15 07:07:00,38.9,37.9,29.94,WSW,253,2.3,2.3,96,0.00,OVC,,0.04,0.0,WeatherDisplay:10.37,2013-02-15 06:07:00,
2013-02-15 07:13:00,39.0,38.0,29.94,WSW,253,3.5,3.5,96,0.00,OVC,,0.04,0.0,WeatherDisplay:10.37,2013-02-15 06:13:00,
2013-02-15 07:18:00,39.2,38.2,29.94,WSW,253,4.6,4.6,96,0.01,RA,,0.05,0.0,WeatherDisplay:10.37,2013-02-15 06:18:00,
2013-02-15 07:23:00,39.3,38.3,29.94,WSW,253,0.0,0.0,96,0.01,RA,,0.05,0.0,WeatherDisplay:10.37,2013-02-15 06:23:00,
2013-02-15 07:28:00,39.4,38.4,29.94,WSW,254,2.3,0.0,96,0.01,OVC,,0.05,0.0,WeatherDisplay:10.37,2013-02-15 06:28:00,
2013-02-15 07:34:00,39.4,38.4,29.94,WSW,254,1.1,1.1,96,0.01,OVC,,0.05,0.0,WeatherDisplay:10.37,2013-02-15 06:34:00,
2013-02-15 07:39:00,39.4,38.4,29.94,WSW,254,2.3,2.3,96,0.01,OVC,,0.05,0.0,WeatherDisplay:10.37,2013-02-15 06:39:00,
2013-02-15 07:44:00,39.4,38.4,29.94,WSW,254,3.5,0.0,96,0.01,OVC,,0.05,0.0,WeatherDisplay:10.37,2013-02-15 06:44:00,
2013-02-15 07:49:00,39.4,38.4,29.95,WSW,254,1.1,1.1,96,0.01,OVC,,0.05,0.0,WeatherDisplay:10.37,2013-02-15 06:49:00,
2013-02-15 07:55:00,39.4,38.4,29.95,WSW,254,0.0,0.0,96,0.02,RA,,0.06,0.0,WeatherDisplay:10.37,2013-02-15 06:55:00,
2013-02-15 08:00:00,39.3,38.3,29.95,WSW,254,0.0,0.0,96,0.02,RA,,0.06,0.0,WeatherDisplay:10.37,2013-02-15 07:00:00,
2013-02-15 08:05:00,39.3,38.3,29.96,WSW,254,4.6,4.6,96,0.02,OVC,,0.06,0.0,WeatherDisplay:10.37,2013-02-15 07:05:00,
2013-02-15 08:10:00,39.3,38.3,29.96,WSW,254,1.1,0.0,96,0.02,OVC,,0.06,0.0,WeatherDisplay:10.37,2013-02-15 07:10:00,
2013-02-15 08:15:00,39.2,38.2,29.96,WSW,254,2.0,2.0,96,0.02,OVC,,0.06,5.0,WeatherDisplay:10.37,2013-02-15 07:15:00,
2013-02-15 08:20:00,39.3,38.3,29.96,WSW,254,1.1,0.0,96,0.01,OVC,,0.06,7.0,WeatherDisplay:10.37,2013-02-15 07:20:00,
2013-02-15 08:25:00,39.3,38.3,29.96,WSW,254,4.6,4.6,96,0.01,OVC,,0.06,7.0,WeatherDisplay:10.37,2013-02-15 07:25:00,
2013-02-15 08:30:00,39.4,38.4,29.96,WSW,254,3.5,3.5,96,0.01,OVC,,0.06,9.0,WeatherDisplay:10.37,2013-02-15 07:30:00,
2013-02-15 08:36:00,39.4,38.4,29.97,WSW,254,0.0,0.0,96,0.01,OVC,,0.06,11.0,WeatherDisplay:10.37,2013-02-15 07:36:00,
2013-02-15 08:41:00,39.5,38.5,29.97,WSW,254,0.0,0.0,96,0.01,OVC,,0.06,11.0,WeatherDisplay:10.37,2013-02-15 07:41:00,
2013-02-15 08:46:00,39.5,38.5,29.97,WSW,254,1.1,0.0,96,0.01,OVC,,0.06,14.0,WeatherDisplay:10.37,2013-02-15 07:46:00,
2013-02-15 08:51:00,39.5,38.5,29.97,WSW,254,0.0,0.0,96,0.01,OVC,,0.06,16.0,WeatherDisplay:10.37,2013-02-15 07:51:00,
2013-02-15 08:56:00,39.5,38.5,29.97,SSW,200,0.0,0.0,96,0.00,OVC,,0.06,21.0,WeatherDisplay:10.37,2013-02-15 07:56:00,
2013-02-15 09:02:00,39.5,38.5,29.97,NE,55,0.0,0.0,96,0.01,RA,,0.06,25.0,WeatherDisplay:10.37,2013-02-15 08:02:00,
2013-02-15 09:07:00,39.5,38.5,29.97,NE,55,0.0,0.0,96,0.01,RA,,0.06,28.0,WeatherDisplay:10.37,2013-02-15 08:07:00,
2013-02-15 09:12:00,39.6,38.6,29.97,NE,55,0.0,0.0,96,0.01,BKN,,0.06,32.0,WeatherDisplay:10.37,2013-02-15 08:12:00,
2013-02-15 09:17:00,39.6,38.6,29.98,NE,55,0.0,0.0,96,0.01,BKN,,0.06,33.0,WeatherDisplay:10.37,2013-02-15 08:17:00,
2013-02-15 09:22:00,39.6,38.6,29.98,NE,55,3.5,3.5,96,0.01,BKN,,0.06,40.0,WeatherDisplay:10.37,2013-02-15 08:22:00,
2013-02-15 09:27:00,39.8,38.8,29.98,NE,55,0.0,0.0,96,0.01,BKN,,0.06,40.0,WeatherDisplay:10.37,2013-02-15 08:27:00,
2013-02-15 09:33:00,39.9,38.9,29.98,NE,54,3.5,3.5,96,0.01,BKN,,0.06,53.0,WeatherDisplay:10.37,2013-02-15 08:33:00,
2013-02-15 09:38:00,40.1,39.1,29.98,NW,313,0.0,0.0,96,0.01,BKN,,0.06,51.0,WeatherDisplay:10.37,2013-02-15 08:38:00,
2013-02-15 09:43:00,40.2,39.2,29.98,NW,313,4.0,4.0,96,0.02,RA,,0.07,51.0,WeatherDisplay:10.37,2013-02-15 08:43:00,
2013-02-15 09:48:00,40.4,39.4,29.99,WNW,291,1.1,1.1,96,0.02,BKN,,0.07,54.0,WeatherDisplay:10.37,2013-02-15 08:48:00,
2013-02-15 09:54:00,40.5,39.4,29.99,WNW,292,2.3,2.3,96,0.02,BKN,,0.07,56.0,WeatherDisplay:10.37,2013-02-15 08:54:00,
2013-02-15 09:59:00,40.7,39.6,29.99,WNW,288,1.1,0.0,96,0.02,BKN,,0.07,46.0,WeatherDisplay:10.37,2013-02-15 08:59:00,
2013-02-15 10:04:00,40.8,39.7,29.99,WNW,288,0.0,0.0,96,0.01,OVC,,0.07,42.0,WeatherDisplay:10.37,2013-02-15 09:04:00,
2013-02-15 10:09:00,40.8,39.7,29.99,WNW,288,3.5,3.5,96,0.01,OVC,,0.07,42.0,WeatherDisplay:10.37,2013-02-15 09:09:00,
2013-02-15 10:14:00,40.9,39.8,29.99,WNW,288,1.1,1.1,96,0.01,OVC,,0.07,151.0,WeatherDisplay:10.37,2013-02-15 09:14:00,
2013-02-15 10:19:00,41.2,40.1,29.99,WNW,288,3.5,3.5,96,0.01,OVC,,0.07,165.0,WeatherDisplay:10.37,2013-02-15 09:19:00,
2013-02-15 10:24:00,41.7,40.6,29.99,WNW,288,2.0,2.0,96,0.01,OVC,,0.07,142.0,WeatherDisplay:10.37,2013-02-15 09:24:00,
2013-02-15 10:30:00,42.3,41.2,29.99,WNW,288,1.1,1.1,96,0.01,OVC,,0.07,174.0,WeatherDisplay:10.37,2013-02-15 09:30:00,
2013-02-15 10:35:00,42.7,41.6,29.99,WNW,290,0.0,0.0,96,0.01,OVC,,0.07,93.0,WeatherDisplay:10.37,2013-02-15 09:35:00,
2013-02-15 10:40:00,43.0,41.9,30.00,WNW,282,4.6,4.6,96,0.00,OVC,,0.07,128.0,WeatherDisplay:10.37,2013-02-15 09:40:00,
2013-02-15 10:46:00,43.0,41.9,30.00,WNW,283,3.5,3.5,96,0.00,OVC,,0.07,139.0,WeatherDisplay:10.37,2013-02-15 09:46:00,
2013-02-15 10:51:00,42.9,41.8,30.00,WNW,283,3.5,3.5,96,0.00,OVC,,0.07,178.0,WeatherDisplay:10.37,2013-02-15 09:51:00,
2013-02-15 10:56:00,43.0,41.9,30.00,WNW,282,4.6,4.6,96,0.01,RA,,0.08,128.0,WeatherDisplay:10.37,2013-02-15 09:56:00,
2013-02-15 11:01:00,43.0,41.9,30.00,WNW,288,2.3,2.3,96,0.01,RA,,0.08,146.0,WeatherDisplay:10.37,2013-02-15 10:01:00,
2013-02-15 11:07:00,43.1,42.0,30.00,West,278,3.5,3.5,96,0.01,SCT,,0.08,172.0,WeatherDisplay:10.37,2013-02-15 10:07:00,
2013-02-15 11:12:00,43.2,42.1,30.00,WNW,285,4.6,4.6,96,0.01,SCT,,0.08,246.0,WeatherDisplay:10.37,2013-02-15 10:12:00,
2013-02-15 11:17:00,43.3,42.2,30.01,West,267,5.8,5.8,96,0.01,SCT,,0.08,287.0,WeatherDisplay:10.37,2013-02-15 10:17:00,
2013-02-15 11:22:00,43.6,42.5,30.01,NW,308,5.8,5.8,96,0.01,SCT,,0.08,285.0,WeatherDisplay:10.37,2013-02-15 10:22:00,
2013-02-15 11:27:00,43.7,42.6,30.01,NW,308,3.5,3.5,96,0.02,RA,,0.09,239.0,WeatherDisplay:10.37,2013-02-15 10:27:00,
2013-02-15 11:32:00,44.0,42.9,30.01,WNW,294,5.8,5.8,96,0.02,RA,,0.09,190.0,WeatherDisplay:10.37,2013-02-15 10:32:00,
2013-02-15 11:37:00,44.2,43.1,30.02,WSW,242,5.8,5.8,96,0.02,SCT,,0.09,107.0,WeatherDisplay:10.37,2013-02-15 10:37:00,
2013-02-15 11:43:00,44.0,42.9,30.02,SW,231,3.5,3.5,96,0.02,SCT,,0.09,121.0,WeatherDisplay:10.37,2013-02-15 10:43:00,
2013-02-15 11:48:00,43.8,42.7,30.02,SW,234,4.6,4.6,96,0.02,SCT,,0.09,167.0,WeatherDisplay:10.37,2013-02-15 10:48:00,
2013-02-15 11:53:00,43.7,42.6,30.02,West,268,3.5,3.5,96,0.02,SCT,,0.09,151.0,WeatherDisplay:10.37,2013-02-15 10:53:00,
2013-02-15 11:59:00,43.7,42.4,30.02,West,268,3.5,3.5,95,0.01,SCT,,0.09,181.0,WeatherDisplay:10.37,2013-02-15 10:59:00,
2013-02-15 12:04:00,43.8,42.5,30.02,SSW,212,3.5,3.5,95,0.01,SCT,,0.09,109.0,WeatherDisplay:10.37,2013-02-15 11:04:00,
2013-02-15 12:09:00,43.9,42.6,30.02,WSW,248,3.5,3.5,95,0.01,SCT,,0.09,158.0,WeatherDisplay:10.37,2013-02-15 11:09:00,
2013-02-15 12:14:00,44.0,42.7,30.02,West,275,3.5,3.5,95,0.01,SCT,,0.09,77.0,WeatherDisplay:10.37,2013-02-15 11:14:00,
2013-02-15 12:19:00,44.1,42.8,30.02,WNW,295,2.3,2.3,95,0.01,SCT,,0.09,132.0,WeatherDisplay:10.37,2013-02-15 11:19:00,
2013-02-15 12:24:00,44.2,42.9,30.02,WNW,291,3.5,3.5,95,0.01,SCT,,0.09,207.0,WeatherDisplay:10.37,2013-02-15 11:24:00,
2013-02-15 12:29:00,44.2,42.9,30.02,West,277,6.9,6.9,95,0.00,SCT,,0.09,221.0,WeatherDisplay:10.37,2013-02-15 11:29:00,
2013-02-15 12:35:00,44.4,43.1,30.02,West,273,6.9,6.9,95,0.00,SCT,,0.09,183.0,WeatherDisplay:10.37,2013-02-15 11:35:00,
2013-02-15 12:40:00,44.6,43.0,30.02,West,279,8.1,8.1,94,0.00,SCT,,0.09,188.0,WeatherDisplay:10.37,2013-02-15 11:40:00,
2013-02-15 12:45:00,44.7,43.1,30.02,West,264,5.0,5.0,94,0.00,SCT,,0.09,244.0,WeatherDisplay:10.37,2013-02-15 11:45:00,
2013-02-15 12:50:00,44.8,43.2,30.02,WNW,284,9.2,9.2,94,0.00,SCT,,0.09,209.0,WeatherDisplay:10.37,2013-02-15 11:50:00,
2013-02-15 12:56:00,44.9,43.0,30.03,WSW,245,6.9,6.9,93,0.00,SCT,,0.09,185.0,WeatherDisplay:10.37,2013-02-15 11:56:00,
2013-02-15 13:01:00,44.9,43.0,30.03,SW,234,9.2,9.2,93,0.00,SCT,,0.09,229.0,WeatherDisplay:10.37,2013-02-15 12:01:00,
2013-02-15 13:06:00,45.1,43.2,30.03,SW,221,8.1,8.1,93,0.00,SCT,,0.09,223.0,WeatherDisplay:10.37,2013-02-15 12:06:00,
2013-02-15 13:11:00,45.1,42.9,30.03,WSW,254,4.6,4.6,92,0.00,SCT,,0.09,197.0,WeatherDisplay:10.37,2013-02-15 12:11:00,
2013-02-15 13:16:00,45.3,43.1,30.03,WNW,295,5.8,5.8,92,0.00,SCT,,0.09,211.0,WeatherDisplay:10.37,2013-02-15 12:16:00,
2013-02-15 13:21:00,45.5,43.3,30.03,WSW,255,4.6,4.6,92,0.00,SCT,,0.09,195.0,WeatherDisplay:10.37,2013-02-15 12:21:00,
2013-02-15 13:27:00,45.5,43.0,30.03,West,264,4.6,4.6,91,0.00,SCT,,0.09,192.0,WeatherDisplay:10.37,2013-02-15 12:27:00,
2013-02-15 13:32:00,45.5,43.0,30.03,WSW,258,4.6,4.6,91,0.00,SCT,,0.09,128.0,WeatherDisplay:10.37,2013-02-15 12:32:00,
2013-02-15 13:37:00,45.5,42.7,30.03,West,268,4.0,4.0,90,0.00,SCT,,0.09,130.0,WeatherDisplay:10.37,2013-02-15 12:37:00,
2013-02-15 13:42:00,45.4,42.6,30.03,West,280,6.9,6.9,90,0.00,SCT,,0.09,135.0,WeatherDisplay:10.37,2013-02-15 12:42:00,
2013-02-15 13:47:00,45.2,42.4,30.03,WNW,288,6.9,6.9,90,0.00,SCT,,0.09,141.0,WeatherDisplay:10.37,2013-02-15 12:47:00,
2013-02-15 13:53:00,45.1,42.3,30.03,WSW,242,3.5,3.5,90,0.00,SCT,,0.09,141.0,WeatherDisplay:10.37,2013-02-15 12:53:00,
2013-02-15 13:58:00,45.0,42.2,30.03,WSW,242,3.5,3.5,90,0.00,SCT,,0.09,128.0,WeatherDisplay:10.37,2013-02-15 12:58:00,
2013-02-15 14:03:00,44.8,42.0,30.04,WNW,292,5.8,5.8,90,0.00,BKN,,0.09,118.0,WeatherDisplay:10.37,2013-02-15 13:03:00,
2013-02-15 14:08:00,44.6,41.8,30.04,WNW,286,4.6,4.6,90,0.00,BKN,,0.09,141.0,WeatherDisplay:10.37,2013-02-15 13:08:00,
2013-02-15 14:13:00,44.5,41.7,30.04,West,276,5.8,5.8,90,0.00,BKN,,0.09,100.0,WeatherDisplay:10.37,2013-02-15 13:13:00,
2013-02-15 14:19:00,44.4,41.7,30.04,West,267,4.6,4.6,90,0.00,BKN,,0.09,86.0,WeatherDisplay:10.37,2013-02-15 13:19:00,
2013-02-15 14:24:00,44.3,41.6,30.04,West,278,3.5,3.5,90,0.00,BKN,,0.09,77.0,WeatherDisplay:10.37,2013-02-15 13:24:00,
2013-02-15 14:29:00,44.2,41.5,30.05,WSW,257,4.6,4.6,90,0.00,BKN,,0.09,90.0,WeatherDisplay:10.37,2013-02-15 13:29:00,
2013-02-15 14:34:00,44.1,41.6,30.05,WSW,256,0.0,0.0,91,0.00,BKN,,0.09,76.0,WeatherDisplay:10.37,2013-02-15 13:34:00,
2013-02-15 14:40:00,44.1,41.6,30.05,West,259,5.8,5.8,91,0.00,BKN,,0.09,79.0,WeatherDisplay:10.37,2013-02-15 13:40:00,
2013-02-15 14:45:00,44.0,41.5,30.05,West,269,4.6,4.6,91,0.00,BKN,,0.09,72.0,WeatherDisplay:10.37,2013-02-15 13:45:00,
2013-02-15 14:50:00,43.9,41.2,30.05,WNW,287,5.8,5.8,90,0.00,BKN,,0.09,69.0,WeatherDisplay:10.37,2013-02-15 13:50:00,
2013-02-15 14:55:00,43.9,41.2,30.05,West,261,4.0,4.0,90,0.00,BKN,,0.09,67.0,WeatherDisplay:10.37,2013-02-15 13:55:00,
2013-02-15 15:00:00,43.8,41.1,30.05,SW,229,3.5,3.5,90,0.00,BKN,,0.09,63.0,WeatherDisplay:10.37,2013-02-15 14:00:00,
2013-02-15 15:06:00,43.7,41.0,30.05,NW,309,7.0,7.0,90,0.00,BKN,,0.09,63.0,WeatherDisplay:10.37,2013-02-15 14:06:00,
2013-02-15 15:11:00,43.6,40.9,30.05,NW,306,4.6,4.6,90,0.00,BKN,,0.09,62.0,WeatherDisplay:10.37,2013-02-15 14:11:00,
2013-02-15 15:16:00,43.5,40.8,30.05,NW,306,3.5,3.5,90,0.00,BKN,,0.09,56.0,WeatherDisplay:10.37,2013-02-15 14:16:00,
2013-02-15 15:21:00,43.5,40.8,30.05,West,271,3.5,3.5,90,0.00,BKN,,0.09,65.0,WeatherDisplay:10.37,2013-02-15 14:21:00,
2013-02-15 15:26:00,43.5,40.8,30.06,WNW,296,3.5,3.5,90,0.00,BKN,,0.09,67.0,WeatherDisplay:10.37,2013-02-15 14:26:00,
2013-02-15 15:31:00,43.4,40.7,30.06,WSW,257,4.0,4.0,90,0.00,BKN,,0.09,47.0,WeatherDisplay:10.37,2013-02-15 14:31:00,
2013-02-15 15:37:00,43.4,40.7,30.06,West,274,3.5,3.5,90,0.00,BKN,,0.09,44.0,WeatherDisplay:10.37,2013-02-15 14:37:00,
2013-02-15 15:42:00,43.3,40.6,30.06,WNW,301,4.0,4.0,90,0.00,BKN,,0.09,49.0,WeatherDisplay:10.37,2013-02-15 14:42:00,
2013-02-15 15:47:00,43.2,40.5,30.06,West,273,4.0,4.0,90,0.00,BKN,,0.09,54.0,WeatherDisplay:10.37,2013-02-15 14:47:00,
2013-02-15 15:52:00,43.2,40.5,30.06,WNW,293,6.9,6.9,90,0.00,BKN,,0.09,62.0,WeatherDisplay:10.37,2013-02-15 14:52:00,
2013-02-15 15:58:00,43.2,40.5,30.06,West,259,4.0,4.0,90,0.00,BKN,,0.09,74.0,WeatherDisplay:10.37,2013-02-15 14:58:00,
2013-02-15 16:03:00,43.2,40.8,30.06,West,272,3.5,3.5,91,0.00,BKN,,0.09,67.0,WeatherDisplay:10.37,2013-02-15 15:03:00,
2013-02-15 16:08:00,43.2,40.8,30.06,West,281,5.8,5.8,91,0.00,BKN,,0.09,76.0,WeatherDisplay:10.37,2013-02-15 15:08:00,
2013-02-15 16:13:00,43.2,40.8,30.06,West,265,5.8,5.8,91,0.00,BKN,,0.09,60.0,WeatherDisplay:10.37,2013-02-15 15:13:00,
2013-02-15 16:19:00,43.2,40.8,30.06,West,280,5.8,5.8,91,0.00,BKN,,0.09,63.0,WeatherDisplay:10.37,2013-02-15 15:19:00,
2013-02-15 16:24:00,43.2,40.8,30.06,West,279,3.5,3.5,91,0.00,BKN,,0.09,63.0,WeatherDisplay:10.37,2013-02-15 15:24:00,
2013-02-15 16:29:00,43.2,40.5,30.06,West,275,4.6,4.6,90,0.00,BKN,,0.09,60.0,WeatherDisplay:10.37,2013-02-15 15:29:00,
2013-02-15 16:34:00,43.2,40.5,30.06,West,275,1.1,1.1,90,0.00,BKN,,0.09,69.0,WeatherDisplay:10.37,2013-02-15 15:34:00,
2013-02-15 16:39:00,43.2,40.5,30.07,WSW,246,5.8,5.8,90,0.00,BKN,,0.09,53.0,WeatherDisplay:10.37,2013-02-15 15:39:00,
2013-02-15 16:44:00,43.1,40.4,30.07,West,271,3.5,3.5,90,0.00,BKN,,0.09,49.0,WeatherDisplay:10.37,2013-02-15 15:44:00,
2013-02-15 16:50:00,43.1,40.4,30.07,West,272,3.5,3.5,90,0.00,BKN,,0.09,53.0,WeatherDisplay:10.37,2013-02-15 15:50:00,
2013-02-15 16:55:00,43.0,40.3,30.07,WNW,292,5.8,5.8,90,0.00,BKN,,0.09,62.0,WeatherDisplay:10.37,2013-02-15 15:55:00,
2013-02-15 17:00:00,43.0,40.3,30.07,SW,233,6.9,6.9,90,0.00,BKN,,0.09,70.0,WeatherDisplay:10.37,2013-02-15 16:00:00,
2013-02-15 17:05:00,42.9,40.2,30.07,SW,234,3.5,3.5,90,0.00,OVC,,0.09,47.0,WeatherDisplay:10.37,2013-02-15 16:05:00,
2013-02-15 17:11:00,42.9,40.5,30.07,West,263,6.9,6.9,91,0.00,OVC,,0.09,40.0,WeatherDisplay:10.37,2013-02-15 16:11:00,
2013-02-15 17:16:00,42.9,40.5,30.07,SSW,204,4.6,4.6,91,0.00,OVC,,0.09,32.0,WeatherDisplay:10.37,2013-02-15 16:16:00,
2013-02-15 17:21:00,42.9,40.5,30.07,SSW,205,2.3,2.3,91,0.00,OVC,,0.09,23.0,WeatherDisplay:10.37,2013-02-15 16:21:00,
2013-02-15 17:26:00,42.8,40.4,30.07,SSW,209,3.5,3.5,91,0.00,OVC,,0.09,18.0,WeatherDisplay:10.37,2013-02-15 16:26:00,
2013-02-15 17:32:00,42.8,40.4,30.07,SSW,209,2.3,2.3,91,0.00,OVC,,0.09,11.0,WeatherDisplay:10.37,2013-02-15 16:32:00,
2013-02-15 17:37:00,42.7,40.3,30.08,SSW,209,2.3,2.3,91,0.00,OVC,,0.09,9.0,WeatherDisplay:10.37,2013-02-15 16:37:00,
2013-02-15 17:42:00,42.7,40.3,30.08,West,269,3.5,3.5,91,0.00,OVC,,0.09,7.0,WeatherDisplay:10.37,2013-02-15 16:42:00,
2013-02-15 17:47:00,42.6,40.2,30.08,WSW,244,6.9,6.9,91,0.00,OVC,,0.09,5.0,WeatherDisplay:10.37,2013-02-15 16:47:00,
2013-02-15 17:52:00,42.5,40.1,30.08,WSW,249,5.8,5.8,91,0.00,OVC,,0.09,0.0,WeatherDisplay:10.37,2013-02-15 16:52:00,
2013-02-15 17:57:00,42.4,40.0,30.08,SW,232,3.5,3.5,91,0.00,OVC,,0.09,0.0,WeatherDisplay:10.37,2013-02-15 16:57:00,
2013-02-15 18:03:00,42.3,39.9,30.09,SW,232,1.1,1.1,91,0.00,BKN,,0.09,0.0,WeatherDisplay:10.37,2013-02-15 17:03:00,
2013-02-15 18:08:00,42.2,39.8,30.09,SW,232,3.5,3.5,91,0.00,BKN,,0.09,0.0,WeatherDisplay:10.37,2013-02-15 17:08:00,
2013-02-15 18:13:00,42.2,40.0,30.09,SW,232,3.5,3.5,92,0.00,BKN,,0.09,0.0,WeatherDisplay:10.37,2013-02-15 17:13:00,
2013-02-15 18:18:00,42.2,40.0,30.09,West,259,3.5,3.5,92,0.00,BKN,,0.09,0.0,WeatherDisplay:10.37,2013-02-15 17:18:00,
2013-02-15 18:23:00,42.1,39.9,30.09,WSW,250,2.3,2.3,92,0.00,BKN,,0.09,0.0,WeatherDisplay:10.37,2013-02-15 17:23:00,
2013-02-15 18:28:00,42.1,39.9,30.09,WSW,242,3.5,3.5,92,0.00,BKN,,0.09,0.0,WeatherDisplay:10.37,2013-02-15 17:28:00,
2013-02-15 18:34:00,42.1,39.9,30.09,WSW,243,3.5,3.5,92,0.00,BKN,,0.09,0.0,WeatherDisplay:10.37,2013-02-15 17:34:00,
2013-02-15 18:39:00,42.0,39.8,30.09,West,271,4.6,4.6,92,0.00,BKN,,0.09,0.0,WeatherDisplay:10.37,2013-02-15 17:39:00,
2013-02-15 18:44:00,42.0,39.8,30.09,West,270,3.5,3.5,92,0.00,BKN,,0.09,0.0,WeatherDisplay:10.37,2013-02-15 17:44:00,
2013-02-15 18:49:00,42.0,39.8,30.10,SW,214,3.5,3.5,92,0.00,BKN,,0.09,0.0,WeatherDisplay:10.37,2013-02-15 17:49:00,
2013-02-15 18:55:00,42.0,39.8,30.10,SW,214,3.5,3.5,92,0.00,BKN,,0.09,0.0,WeatherDisplay:10.37,2013-02-15 17:55:00,
2013-02-15 19:00:00,41.9,39.7,30.10,SW,214,3.5,3.5,92,0.00,BKN,,0.09,0.0,WeatherDisplay:10.37,2013-02-15 18:00:00,
2013-02-15 19:05:00,41.9,39.7,30.10,WSW,239,3.5,3.5,92,0.00,CLR,,0.09,0.0,WeatherDisplay:10.37,2013-02-15 18:05:00,
2013-02-15 19:10:00,41.9,39.7,30.10,WSW,240,4.0,4.0,92,0.00,CLR,,0.09,0.0,WeatherDisplay:10.37,2013-02-15 18:10:00,
2013-02-15 19:15:00,41.9,39.7,30.10,SW,233,3.5,3.5,92,0.00,CLR,,0.09,0.0,WeatherDisplay:10.37,2013-02-15 18:15:00,
2013-02-15 19:21:00,41.8,39.9,30.11,SW,234,2.0,2.0,93,0.00,CLR,,0.09,0.0,WeatherDisplay:10.37,2013-02-15 18:21:00,
2013-02-15 19:26:00,41.9,40.0,30.11,SW,234,2.3,2.3,93,0.00,CLR,,0.09,0.0,WeatherDisplay:10.37,2013-02-15 18:26:00,
2013-02-15 19:31:00,41.8,39.9,30.11,WSW,246,1.1,0.0,93,0.00,CLR,,0.09,0.0,WeatherDisplay:10.37,2013-02-15 18:31:00,
2013-02-15 19:36:00,41.8,39.9,30.10,WSW,244,3.5,3.5,93,0.00,CLR,,0.09,0.0,WeatherDisplay:10.37,2013-02-15 18:36:00,
2013-02-15 19:41:00,41.8,39.9,30.11,WSW,244,3.5,3.5,93,0.00,CLR,,0.09,0.0,WeatherDisplay:10.37,2013-02-15 18:41:00,
2013-02-15 19:47:00,41.8,39.9,30.11,WSW,245,3.5,0.0,93,0.00,CLR,,0.09,0.0,WeatherDisplay:10.37,2013-02-15 18:47:00,
2013-02-15 19:52:00,41.7,39.8,30.11,WSW,245,0.0,0.1,93,0.00,CLR,,0.09,0.0,WeatherDisplay:10.37,2013-02-15 18:52:00,
2013-02-15 19:57:00,41.7,39.8,30.11,WSW,245,1.0,1.0,93,0.00,CLR,,0.09,0.0,WeatherDisplay:10.37,2013-02-15 18:57:00,
2013-02-15 20:03:00,41.7,39.8,30.11,WSW,243,2.3,0.0,93,0.00,OVC,,0.09,0.0,WeatherDisplay:10.37,2013-02-15 19:03:00,
2013-02-15 20:08:00,41.6,39.7,30.11,WSW,243,3.5,3.5,93,0.00,OVC,,0.09,0.0,WeatherDisplay:10.37,2013-02-15 19:08:00,
2013-02-15 20:13:00,41.7,39.8,30.11,WSW,243,3.5,3.5,93,0.00,OVC,,0.09,0.0,WeatherDisplay:10.37,2013-02-15 19:13:00,
2013-02-15 20:18:00,41.7,39.8,30.11,WSW,243,3.5,3.5,93,0.00,OVC,,0.09,0.0,WeatherDisplay:10.37,2013-02-15 19:18:00,
2013-02-15 20:23:00,41.7,40.1,30.11,WSW,243,2.3,2.3,94,0.00,OVC,,0.09,0.0,WeatherDisplay:10.37,2013-02-15 19:23:00,
2013-02-15 20:29:00,41.7,40.1,30.11,West,259,3.5,3.5,94,0.00,OVC,,0.09,0.0,WeatherDisplay:10.37,2013-02-15 19:29:00,
2013-02-15 20:34:00,41.6,40.0,30.11,West,259,2.3,2.3,94,0.00,OVC,,0.09,0.0,WeatherDisplay:10.37,2013-02-15 19:34:00,
2013-02-15 20:39:00,41.5,39.9,30.11,WSW,258,1.1,0.0,94,0.00,OVC,,0.09,0.0,WeatherDisplay:10.37,2013-02-15 19:39:00,
2013-02-15 20:44:00,41.5,39.9,30.11,WSW,257,4.6,4.6,94,0.00,OVC,,0.09,0.0,WeatherDisplay:10.37,2013-02-15 19:44:00,
2013-02-15 20:49:00,41.5,39.9,30.11,WSW,257,2.3,2.3,94,0.00,OVC,,0.09,0.0,WeatherDisplay:10.37,2013-02-15 19:49:00,
2013-02-15 20:55:00,41.4,39.8,30.11,WSW,257,2.3,2.3,94,0.00,OVC,,0.09,0.0,WeatherDisplay:10.37,2013-02-15 19:55:00,
2013-02-15 21:00:00,41.5,39.9,30.11,WSW,257,3.0,3.0,94,0.00,OVC,,0.09,0.0,WeatherDisplay:10.37,2013-02-15 20:00:00,
2013-02-15 21:05:00,41.5,39.9,30.12,WSW,240,2.3,2.3,94,0.00,BKN,,0.09,0.0,WeatherDisplay:10.37,2013-02-15 20:05:00,
2013-02-15 21:10:00,41.6,40.0,30.12,WSW,240,2.3,2.3,94,0.00,BKN,,0.09,0.0,WeatherDisplay:10.37,2013-02-15 20:10:00,
2013-02-15 21:16:00,41.6,40.0,30.12,WSW,246,3.5,3.5,94,0.00,BKN,,0.09,0.0,WeatherDisplay:10.37,2013-02-15 20:16:00,
2013-02-15 21:21:00,41.6,40.0,30.12,WSW,247,4.6,4.6,94,0.00,BKN,,0.09,0.0,WeatherDisplay:10.37,2013-02-15 20:21:00,
2013-02-15 21:26:00,41.6,40.0,30.12,WSW,247,4.0,4.0,94,0.00,BKN,,0.09,0.0,WeatherDisplay:10.37,2013-02-15 20:26:00,
2013-02-15 21:31:00,41.7,40.1,30.12,WSW,248,2.3,2.3,94,0.00,BKN,,0.09,0.0,WeatherDisplay:10.37,2013-02-15 20:31:00,
2013-02-15 21:37:00,41.7,40.1,30.12,West,271,4.6,4.6,94,0.00,BKN,,0.09,0.0,WeatherDisplay:10.37,2013-02-15 20:37:00,
2013-02-15 21:42:00,41.6,40.0,30.12,West,271,3.5,3.5,94,0.00,BKN,,0.09,0.0,WeatherDisplay:10.37,2013-02-15 20:42:00,
2013-02-15 21:47:00,41.6,40.0,30.12,West,265,3.5,3.5,94,0.00,BKN,,0.09,0.0,WeatherDisplay:10.37,2013-02-15 20:47:00,
2013-02-15 21:52:00,41.6,40.0,30.12,West,265,3.5,3.5,94,0.00,BKN,,0.09,0.0,WeatherDisplay:10.37,2013-02-15 20:52:00,
2013-02-15 21:58:00,41.6,40.0,30.12,SW,236,3.5,3.5,94,0.00,BKN,,0.09,0.0,WeatherDisplay:10.37,2013-02-15 20:58:00,
2013-02-15 22:03:00,41.6,40.0,30.13,West,268,2.3,2.3,94,0.00,CLR,,0.09,0.0,WeatherDisplay:10.37,2013-02-15 21:03:00,
2013-02-15 22:08:00,41.6,40.0,30.13,West,268,0.0,0.0,94,0.00,CLR,,0.09,0.0,WeatherDisplay:10.37,2013-02-15 21:08:00,
2013-02-15 22:13:00,41.6,40.0,30.13,West,268,0.0,0.0,94,0.00,CLR,,0.09,0.0,WeatherDisplay:10.37,2013-02-15 21:13:00,
2013-02-15 22:18:00,41.6,40.0,30.13,West,267,2.3,0.0,94,0.00,CLR,,0.09,0.0,WeatherDisplay:10.37,2013-02-15 21:18:00,
2013-02-15 22:24:00,41.6,40.0,30.13,West,267,0.0,0.0,94,0.00,CLR,,0.09,0.0,WeatherDisplay:10.37,2013-02-15 21:24:00,
2013-02-15 22:29:00,41.5,39.9,30.13,West,268,2.3,2.3,94,0.00,CLR,,0.09,0.0,WeatherDisplay:10.37,2013-02-15 21:29:00,
2013-02-15 22:34:00,41.4,39.8,30.13,West,268,0.0,0.0,94,0.00,CLR,,0.09,0.0,WeatherDisplay:10.37,2013-02-15 21:34:00,
2013-02-15 22:39:00,41.4,39.8,30.13,West,268,2.3,2.3,94,0.00,CLR,,0.09,0.0,WeatherDisplay:10.37,2013-02-15 21:39:00,
2013-02-15 22:44:00,41.4,40.1,30.13,West,268,0.0,0.0,95,0.00,CLR,,0.09,0.0,WeatherDisplay:10.37,2013-02-15 21:44:00,
2013-02-15 22:50:00,41.4,40.1,30.13,West,267,3.5,3.5,95,0.00,CLR,,0.09,0.0,WeatherDisplay:10.37,2013-02-15 21:50:00,
2013-02-15 22:55:00,41.4,40.1,30.13,West,267,3.0,3.0,95,0.00,CLR,,0.09,0.0,WeatherDisplay:10.37,2013-02-15 21:55:00,
2013-02-15 23:00:00,41.3,40.0,30.13,West,267,1.1,1.1,95,0.00,CLR,,0.09,0.0,WeatherDisplay:10.37,2013-02-15 22:00:00,
2013-02-15 23:05:00,41.2,39.6,30.13,West,267,0.0,0.0,94,0.00,CLR,,0.09,0.0,WeatherDisplay:10.37,2013-02-15 22:05:00,
2013-02-15 23:10:00,41.2,39.6,30.13,West,267,2.3,2.3,94,0.00,CLR,,0.09,0.0,WeatherDisplay:10.37,2013-02-15 22:10:00,
2013-02-15 23:16:00,41.2,39.6,30.13,West,267,2.3,2.3,94,0.00,CLR,,0.09,0.0,WeatherDisplay:10.37,2013-02-15 22:16:00,
2013-02-15 23:21:00,41.2,39.6,30.13,West,268,1.1,1.1,94,0.00,CLR,,0.09,0.0,WeatherDisplay:10.37,2013-02-15 22:21:00,
2013-02-15 23:26:00,41.1,39.8,30.13,West,269,4.0,4.0,95,0.00,CLR,,0.09,0.0,WeatherDisplay:10.37,2013-02-15 22:26:00,
2013-02-15 23:31:00,41.0,39.7,30.13,West,269,0.0,0.0,95,0.00,CLR,,0.09,0.0,WeatherDisplay:10.37,2013-02-15 22:31:00,
2013-02-15 23:37:00,40.9,39.6,30.13,West,269,0.0,0.0,95,0.00,CLR,,0.09,0.0,WeatherDisplay:10.37,2013-02-15 22:37:00,
2013-02-15 23:42:00,40.8,39.5,30.13,West,269,1.1,0.0,95,0.00,CLR,,0.09,0.0,WeatherDisplay:10.37,2013-02-15 22:42:00,
2013-02-15 23:47:00,40.8,39.5,30.13,West,269,0.0,0.0,95,0.00,CLR,,0.09,0.0,WeatherDisplay:10.37,2013-02-15 22:47:00,
2013-02-15 23:52:00,40.8,39.5,30.13,West,269,0.0,0.0,95,0.00,CLR,,0.09,0.0,WeatherDisplay:10.37,2013-02-15 22:52:00,
2013-02-15 23:57:00,40.9,39.6,30.13,West,269,0.0,0.0,95,0.00,CLR,,0.09,0.0,WeatherDisplay:10.37,2013-02-15 22:57:00,